• In Latvia
  • List of Countries
  • For 7 days
  • Water Temperature
  • Satellite Maps
  • Weather Map
  • Weather Widgets
  • user-avatar
    Login

    Hourly Weather Ugledar

    Today, 22 June, Friday

    Time Temperature Precipitation Wind Pressure Humidity
    00:00 +21°C° 0 mm 3 mps 744 mmHg 62%
    01:00 +20°C° 0 mm 3 mps 744 mmHg 64%
    02:00 +20°C° 0 mm 3 mps 744 mmHg 62%
    03:00 +20°C° 0 mm 3 mps 744 mmHg 64%
    04:00 +20°C° 0 mm 3 mps 744 mmHg 65%
    05:00 +21°C° 0 mm 3 mps 744 mmHg 67%
    06:00 +24°C° 0 mm 3 mps 744 mmHg 61%
    07:00 +26°C° 0 mm 4 mps 744 mmHg 56%
    08:00 +28°C° 0 mm 4 mps 744 mmHg 50%
    09:00 +30°C° 0 mm 4 mps 744 mmHg 45%
    10:00 +31°C° 0 mm 3 mps 743 mmHg 40%
    11:00 +34°C° 0 mm 3 mps 743 mmHg 34%
    12:00 +34°C° 0 mm 3 mps 743 mmHg 33%
    13:00 +34°C° 0 mm 3 mps 743 mmHg 32%
    14:00 +35°C° 0 mm 2 mps 742 mmHg 30%
    15:00 +35°C° 0 mm 2 mps 742 mmHg 32%
    16:00 +34°C° 0 mm 2 mps 742 mmHg 34%
    17:00 +34°C° 0 mm 2 mps 742 mmHg 36%
    18:00 +31°C° 0 mm 2 mps 742 mmHg 39%
    19:00 +29°C° 0 mm 2 mps 742 mmHg 43%
    20:00 +27°C° 0 mm 2 mps 742 mmHg 47%
    21:00 +26°C° 0 mm 3 mps 741 mmHg 48%
    22:00 +26°C° 0 mm 3 mps 741 mmHg 49%
    23:00 +25°C° 0 mm 4 mps 741 mmHg 50%

    Tomorrow, 23 June, Saturday

    Time Temperature Precipitation Wind Pressure Humidity
    00:00 +25°C° 0 mm 4 mps 741 mmHg 50%
    01:00 +23°C° 0 mm 4 mps 741 mmHg 51%
    02:00 +23°C° 0 mm 4 mps 741 mmHg 51%
    03:00 +24°C° 0.1 mm 3 mps 741 mmHg 56%
    04:00 +23°C° 0.1 mm 2 mps 741 mmHg 60%
    05:00 +23°C° 0.1 mm 2 mps 741 mmHg 64%
    06:00 +24°C° 0.3 mm 2 mps 741 mmHg 60%
    07:00 +25°C° 0.3 mm 3 mps 741 mmHg 57%
    08:00 +26°C° 0.3 mm 4 mps 741 mmHg 53%
    09:00 +27°C° 0.7 mm 4 mps 740 mmHg 53%
    10:00 +27°C° 0.7 mm 4 mps 740 mmHg 53%
    11:00 +28°C° 0.7 mm 4 mps 740 mmHg 54%
    12:00 +29°C° 0.4 mm 5 mps 740 mmHg 53%
    13:00 +29°C° 0.4 mm 5 mps 740 mmHg 52%
    14:00 +30°C° 0.4 mm 5 mps 740 mmHg 51%
    15:00 +29°C° 0.1 mm 5 mps 739 mmHg 55%
    16:00 +29°C° 0.1 mm 5 mps 739 mmHg 58%
    17:00 +28°C° 0.1 mm 5 mps 739 mmHg 61%
    18:00 +26°C° 0.2 mm 4 mps 739 mmHg 66%
    19:00 +25°C° 0.2 mm 3 mps 739 mmHg 71%
    20:00 +23°C° 0.2 mm 2 mps 739 mmHg 77%
    21:00 +23°C° 0.6 mm 2 mps 739 mmHg 79%
    22:00 +21°C° 0.6 mm 3 mps 739 mmHg 82%
    23:00 +21°C° 0.6 mm 3 mps 739 mmHg 85%

    Day after tomorrow, 24 June, Sunday

    Time Temperature Precipitation Wind Pressure Humidity
    00:00 +20°C° 0.1 mm 3 mps 739 mmHg 86%
    01:00 +20°C° 0.1 mm 3 mps 740 mmHg 87%
    02:00 +20°C° 0.1 mm 2 mps 740 mmHg 88%
    03:00 +19°C° 0 mm 3 mps 740 mmHg 89%
    04:00 +19°C° 0 mm 4 mps 741 mmHg 89%
    05:00 +19°C° 0 mm 4 mps 741 mmHg 90%
    06:00 +19°C° 0.1 mm 5 mps 741 mmHg 87%
    07:00 +19°C° 0.1 mm 5 mps 742 mmHg 84%
    08:00 +19°C° 0.1 mm 5 mps 742 mmHg 81%
    09:00 +20°C° 0 mm 5 mps 743 mmHg 76%
    10:00 +20°C° 0 mm 5 mps 743 mmHg 71%
    11:00 +21°C° 0 mm 5 mps 743 mmHg 66%
    12:00 +22°C° 0 mm 5 mps 744 mmHg 62%
    13:00 +23°C° 0 mm 5 mps 744 mmHg 58%
    14:00 +25°C° 0 mm 4 mps 744 mmHg 53%
    15:00 +25°C° 0 mm 4 mps 744 mmHg 54%
    16:00 +25°C° 0 mm 4 mps 744 mmHg 54%
    17:00 +25°C° 0 mm 4 mps 744 mmHg 54%
    18:00 +22°C° 0 mm 4 mps 745 mmHg 59%
    19:00 +20°C° 0 mm 4 mps 745 mmHg 65%
    20:00 +19°C° 0 mm 3 mps 745 mmHg 70%
    21:00 +18°C° 0 mm 3 mps 745 mmHg 71%
    22:00 +18°C° 0 mm 3 mps 746 mmHg 73%
    23:00 +17°C° 0 mm 4 mps 746 mmHg 74%

    25 June, Monday

    Time Temperature Precipitation Wind Pressure Humidity
    00:00 +17°C° 0 mm 3 mps 746 mmHg 76%
    01:00 +16°C° 0 mm 3 mps 746 mmHg 78%
    02:00 +16°C° 0 mm 3 mps 746 mmHg 80%
    03:00 +16°C° 0 mm 3 mps 746 mmHg 80%
    04:00 +16°C° 0 mm 3 mps 746 mmHg 80%
    05:00 +16°C° 0 mm 3 mps 747 mmHg 80%
    06:00 +18°C° 0 mm 4 mps 747 mmHg 73%
    07:00 +20°C° 0 mm 4 mps 747 mmHg 66%
    08:00 +22°C° 0 mm 4 mps 747 mmHg 59%
    09:00 +23°C° 0 mm 4 mps 747 mmHg 54%
    10:00 +25°C° 0 mm 4 mps 747 mmHg 48%
    11:00 +26°C° 0 mm 4 mps 747 mmHg 43%
    12:00 +27°C° 0 mm 4 mps 747 mmHg 41%
    13:00 +28°C° 0 mm 4 mps 747 mmHg 39%
    14:00 +28°C° 0 mm 4 mps 747 mmHg 37%
    15:00 +28°C° 0 mm 4 mps 747 mmHg 38%
    16:00 +27°C° 0 mm 4 mps 747 mmHg 40%
    17:00 +27°C° 0 mm 4 mps 747 mmHg 42%
    18:00 +25°C° 0 mm 4 mps 747 mmHg 47%
    19:00 +23°C° 0 mm 4 mps 747 mmHg 52%
    20:00 +21°C° 0 mm 3 mps 747 mmHg 57%
    21:00 +20°C° 0 mm 3 mps 747 mmHg 59%
    22:00 +19°C° 0 mm 3 mps 747 mmHg 60%
    23:00 +19°C° 0 mm 4 mps 747 mmHg 62%

    26 June, Tuesday

    Time Temperature Precipitation Wind Pressure Humidity
    00:00 +18°C° 0 mm 4 mps 747 mmHg 64%
    01:00 +18°C° 0 mm 4 mps 747 mmHg 66%
    02:00 +18°C° 0 mm 4 mps 747 mmHg 68%
    03:00 +18°C° 0 mm 4 mps 747 mmHg 69%
    04:00 +18°C° 0 mm 4 mps 747 mmHg 70%
    05:00 +18°C° 0 mm 4 mps 747 mmHg 71%
    06:00 +20°C° 0 mm 5 mps 747 mmHg 65%
    07:00 +21°C° 0 mm 5 mps 747 mmHg 59%
    08:00 +23°C° 0 mm 6 mps 747 mmHg 53%
    09:00 +24°C° 0 mm 6 mps 747 mmHg 50%
    10:00 +26°C° 0 mm 6 mps 747 mmHg 47%
    11:00 +28°C° 0 mm 5 mps 747 mmHg 44%
    12:00 +28°C° 0 mm 5 mps 746 mmHg 42%
    13:00 +29°C° 0 mm 5 mps 746 mmHg 41%
    14:00 +30°C° 0 mm 6 mps 745 mmHg 40%
    15:00 +29°C° 0 mm 5 mps 745 mmHg 41%
    16:00 +29°C° 0 mm 5 mps 745 mmHg 43%
    17:00 +29°C° 0 mm 5 mps 745 mmHg 45%
    18:00 +27°C° 0 mm 5 mps 745 mmHg 50%
    19:00 +25°C° 0 mm 5 mps 745 mmHg 55%
    20:00 +23°C° 0 mm 4 mps 745 mmHg 60%
    21:00 +22°C° 0 mm 4 mps 744 mmHg 62%
    22:00 +21°C° 0 mm 5 mps 744 mmHg 64%
    23:00 +21°C° 0 mm 5 mps 744 mmHg 67%

    27 June, Wednesday

    Time Temperature Precipitation Wind Pressure Humidity
    00:00 +21°C° 0.1 mm 5 mps 744 mmHg 69%
    01:00 +20°C° 0.1 mm 5 mps 744 mmHg 72%
    02:00 +20°C° 0.1 mm 5 mps 743 mmHg 75%
    03:00 +20°C° 0 mm 5 mps 743 mmHg 76%
    04:00 +20°C° 0 mm 5 mps 743 mmHg 78%
    05:00 +20°C° 0 mm 5 mps 743 mmHg 79%
    06:00 +21°C° 0.6 mm 5 mps 743 mmHg 76%
    07:00 +23°C° 0.6 mm 5 mps 743 mmHg 74%
    08:00 +24°C° 0.6 mm 6 mps 742 mmHg 72%
    09:00 +27°C° 0 mm 6 mps 742 mmHg 66%
    10:00 +29°C° 0 mm 7 mps 742 mmHg 60%
    11:00 +30°C° 0 mm 7 mps 742 mmHg 54%
    12:00 +33°C° 0 mm 7 mps 741 mmHg 50%
    13:00 +34°C° 0 mm 6 mps 741 mmHg 46%
    14:00 +35°C° 0 mm 6 mps 741 mmHg 42%
    15:00 +35°C° 0.2 mm 5 mps 740 mmHg 41%
    16:00 +35°C° 0.2 mm 5 mps 740 mmHg 40%
    17:00 +35°C° 0.2 mm 4 mps 740 mmHg 39%
    18:00 +33°C° 0.1 mm 4 mps 739 mmHg 47%
    19:00 +29°C° 0.1 mm 4 mps 739 mmHg 55%
    20:00 +27°C° 0.1 mm 5 mps 739 mmHg 64%
    21:00 +26°C° 0 mm 4 mps 739 mmHg 66%
    22:00 +25°C° 0 mm 3 mps 739 mmHg 69%
    23:00 +25°C° 0 mm 2 mps 739 mmHg 72%
    Show more